FW8541 Weather Reports


time (UTC)temp
C
wind
direction
speed
KPH
gust
KPH
rain 1hr
cm
rain 24hr
cm
rain mn
cm
humidity
%
barometer
mb
20260504081534 6 0 0.0 0.0 0.00 0.00 0.00 82 1015.2
20260504044532 3 348 0.0 3.2 0.00 0.00 0.00 83 1016.1
20260504043036 3 348 1.6 3.2 0.00 0.00 0.00 82 1016.1
20260504041534 3 0 0.0 0.0 0.00 0.00 0.00 81 1016.0
20260504040035 4 0 0.0 0.0 0.00 0.00 0.00 79 1016.1
20260504034535 4 0 0.0 0.0 0.00 0.00 0.00 78 1015.8
20260504033038 5 0 0.0 0.0 0.00 0.00 0.00 77 1015.8
20260504031534 5 0 0.0 0.0 0.00 0.00 0.00 76 1015.7
20260504030041 5 0 0.0 0.0 0.00 0.00 0.00 74 1015.7
20260504024532 5 0 0.0 0.0 0.00 0.00 0.00 72 1015.7
20260504023035 6 0 0.0 0.0 0.00 0.00 0.00 71 1015.5
20260504021531 6 0 0.0 0.0 0.00 0.00 0.00 70 1015.5
20260504020033 6 0 0.0 0.0 0.00 0.00 0.00 68 1015.3
20260504014545 7 0 0.0 0.0 0.00 0.00 0.00 68 1015.1
20260504013037 7 0 0.0 0.0 0.00 0.00 0.00 65 1015.1
20260504011536 8 0 0.0 0.0 0.00 0.00 0.00 61 1015.0
20260504010034 9 0 0.0 1.6 0.00 0.00 0.00 58 1015.0
20260504004532 10 0 0.0 1.6 0.00 0.00 0.00 53 1014.8
20260504003030 11 0 0.0 1.6 0.00 0.00 0.00 49 1014.8
20260504001530 12 0 0.0 1.6 0.00 0.00 0.00 45 1014.6
20260504000043 13 348 1.6 9.7 0.00 0.00 0.00 41 1014.6
20260503234535 14 336 1.6 6.4 0.00 0.00 0.00 38 1014.4
20260503233031 15 5 1.6 9.7 0.00 0.00 0.00 38 1014.4
20260503231533 15 309 3.2 12.9 0.00 0.00 0.00 36 1014.3
20260503230032 15 19 8.0 17.7 0.00 0.00 0.00 36 1014.2
20260503224539 16 5 8.0 17.7 0.00 0.00 0.00 35 1014.2
20260503223036 16 360 6.4 24.1 0.00 0.00 0.00 34 1014.2
20260503221542 16 10 4.8 24.1 0.00 0.00 0.00 34 1014.3
20260503220035 16 328 8.0 16.1 0.00 0.00 0.00 35 1014.2
20260503214534 16 297 8.0 24.1 0.00 0.00 0.00 34 1014.3
20260503213035 16 37 9.7 20.9 0.00 0.00 0.00 34 1014.3
20260503211532 16 311 8.0 19.3 0.00 0.00 0.00 35 1014.4
20260503210048 16 352 12.9 24.1 0.00 0.00 0.00 33 1014.3
20260503204541 16 321 9.7 24.1 0.00 0.00 0.00 35 1014.4
20260503203037 16 350 9.7 17.7 0.00 0.00 0.00 34 1014.5
20260503201536 16 246 3.2 14.5 0.00 0.00 0.00 34 1014.4
20260503200043 15 318 6.4 19.3 0.00 0.00 0.00 36 1014.7
20260503194533 15 345 11.3 20.9 0.00 0.00 0.00 36 1015.2
20260503193034 15 329 9.7 24.1 0.00 0.00 0.00 34 1015.3
20260503191535 15 340 9.7 20.9 0.00 0.00 0.00 42 1015.5
20260503190043 14 32 11.3 22.5 0.00 0.00 0.00 36 1015.7
20260503184535 15 333 9.7 22.5 0.00 0.00 0.00 38 1015.8
20260503183033 14 339 11.3 24.1 0.00 0.00 0.00 41 1016.2
20260503181533 13 332 4.8 22.5 0.00 0.00 0.00 44 1016.1
20260503180037 13 352 3.2 20.9 0.00 0.00 0.00 42 1016.2
20260503174534 13 12 8.0 19.3 0.00 0.00 0.00 44 1016.5
20260503173049 12 297 6.4 17.7 0.00 0.00 0.00 44 1016.6
20260503171531 12 355 8.0 22.5 0.00 0.00 0.00 43 1016.7